ハインズ彗星

C/2017 T1 ( Heinze )

English version
Home page
Updated on April 21, 2018

---------------------------------------------------------------------

・ プロフィール

発見日 2017年10月2日
発見光度 18.2等
発見者 Aren Heinze (Asteroid Terrestrial-impact Last Alert System (ATLAS) search program)

・ 写真集

・ 軌道要素

Epoch 2018 Feb. 11.0 TT = JDT 2458160.5
T 2018 Feb. 21.71148 TT                                 MPCW
q   0.5806599            (2000.0)            P               Q
z  -0.0001908      Peri.   96.91856     +0.14110162     +0.19774483
                   Node   102.31592     -0.47693271     -0.84507041
e   1.0001108      Incl.   96.83397     +0.86753993     -0.49674237
From 963 observations 2017 Sept. 28-2018 Feb. 12, mean residual 0".6.
     Nongravitational parameters A1 = +4.24, A2 = -1.1454.

・ 星図

・ 光度変化

        m1 = 12.0 + 5 logΔ +  9.0 log r          [   ,-22]  (              〜2018年 1月30日)
        m1 = 14.0 + 5 logΔ + 13.0 log r(t + 20)  [-22,   ]  (2018年 1月30日〜              )

        ※ 灰色の曲線は、m1 = 12.0 + 5 logΔ + 9.0 log r の光度曲線です。

---------------------------------------------------------------------

軌道要素はM.P.E.C. 2018-D91に掲載されたものです。
星図はステラナビゲータ Ver.10 (アストロアーツ) で作成したものです。
光度グラフはComet for Windowsで作成したものです。

---------------------------------------------------------------------

Copyright(C) Seiichi Yoshida (comet@aerith.net). All rights reserved.